Location: *
(46.1200°N, 11.2700°E)
Time: 16:19:30
(UTC+00:00)

Cosmos 2184 Rocket - Pass Details

Date: 02 March 2021
Orbit: 960 x 1001 km, 82.9° (Epoch: 18 April)

Event Time Altitude Azimuth Distance (km) Brightness Sun altitude
Rises 17:27:00 0° 174° (S) 3,628 7.0 -5.0°
Reaches altitude 10° 17:29:31 10° 171° (S) 2,687 6.3 -5.4°
Maximum altitude 17:35:32 60° 93° (E) 1,099 4.0 -6.5°
Drops below altitude 10° 17:41:38 10° 15° (NNE) 2,722 6.2 -7.5°
Sets 17:44:11 0° 12° (NNE) 3,678 6.9 -8.0°
